Atmospheric History
01/16/2019 20:40  to  1/17/2019 20:40
Change End Date:
To complete the export process:
1) Select all of the data below
2) Copy the data to the clipboard
3) Open a word processor such as Notepad
4) Paste the data into the word processor
5) Save the file

Date/Time (MST), AirTemp, RH, Dewpoint ,AvgWindSpeed, GustWindSpeed, WindDirection, PrecipType, PrecipIntensity, PrecipAccumulation, PrecipRate
01/17/2019 20:39, 27, 9, -22 ,2, 2, SE, Yes, , ,  
01/17/2019 20:31, 27, 9, -22 ,1, 1, SE, Yes, , ,  
01/17/2019 20:29, 27, 9, -22 ,0, 0, SE, Yes, , ,  
01/17/2019 20:19, 27, 9, -22 ,0, 1, SE, Yes, , ,  
01/17/2019 20:16, 27, 9, -22 ,0, 1, SE, Yes, , ,  
01/17/2019 20:09, 27, 9, -22 ,0, 1, SE, Yes, , ,  
01/17/2019 20:01, 27, 9, -22 ,1, 2, SE, Yes, , ,  
01/17/2019 19:59, 27, 9, -22 ,1, 2, SE, Yes, , ,  
01/17/2019 19:48, 27, 9, -22 ,1, 1, E, Yes, , ,  
01/17/2019 19:46, 27, 9, -22 ,0, 1, E, Yes, , ,  
01/17/2019 19:38, 27, 9, -23 ,0, 0, E, Yes, , ,  
01/17/2019 19:31, 27, 9, -23 ,0, 1, SE, Yes, , ,  
01/17/2019 19:28, 27, 9, -23 ,0, 1, SE, Yes, , ,  
01/17/2019 19:18, 27, 9, -23 ,0, 0, SE, Yes, , ,  
01/17/2019 19:16, 27, 9, -23 ,0, 0, SE, Yes, , ,  
01/17/2019 19:08, 27, 9, -23 ,0, 0, SE, Yes, , ,  
01/17/2019 19:01, 27, 9, -22 ,0, 3, SE, Yes, , ,  
01/17/2019 18:58, 27, 9, -22 ,1, 3, SE, Yes, , ,  
01/17/2019 18:48, 27, 9, -23 ,2, 6, SE, Yes, , ,  
01/17/2019 18:46, 27, 9, -22 ,4, 6, SE, Yes, , ,  
01/17/2019 18:38, 27, 9, -23 ,0, 0, E, Yes, , ,  
01/17/2019 18:31, 27, 9, -23 ,0, 2, E, Yes, , ,  
01/17/2019 18:28, 27, 9, -23 ,1, 2, E, Yes, , ,  
01/17/2019 18:18, 27, 9, -23 ,0, 6, E, Yes, , ,  
01/17/2019 18:16, 27, 9, -23 ,1, 6, E, Yes, , ,  
01/17/2019 18:08, 27, 9, -23 ,2, 6, SE, Yes, , ,  
01/17/2019 18:01, 27, 9, -22 ,1, 4, SE, Yes, , ,  
01/17/2019 17:58, 27, 9, -22 ,3, 4, E, Yes, , ,  
01/17/2019 17:48, 27, 9, -22 ,1, 2, SE, Yes, , ,  
01/17/2019 17:45, 27, 9, -22 ,2, 2, SE, Yes, , ,  
01/17/2019 17:38, 27, 9, -22 ,1, 3, E, None, None, ,  
01/17/2019 17:30, 27, 9, -22 ,1, 2, E, None, None, ,  
01/17/2019 17:28, 27, 9, -22 ,0, 2, E, None, None, ,  
01/17/2019 17:18, 27, 9, -22 ,0, 2, SE, None, None, ,  
01/17/2019 17:15, 27, 9, -22 ,1, 3, E, None, None, ,  
01/17/2019 17:08, 27, 9, -22 ,2, 4, SE, None, None, ,  
01/17/2019 17:00, 27, 9, -22 ,3, 4, SE, None, None, ,  
01/17/2019 16:58, 27, 9, -22 ,1, 4, SE, None, None, ,  
01/17/2019 16:47, 27, 9, -22 ,1, 6, S, None, None, ,  
01/17/2019 16:45, 28, 9, -22 ,0, 6, E, None, None, ,  
01/17/2019 16:37, 28, 9, -22 ,4, 6, E, None, None, ,  
01/17/2019 16:30, 28, 9, -21 ,3, 4, E, None, None, ,  
01/17/2019 16:27, 28, 9, -21 ,1, 4, E, None, None, ,  
01/17/2019 16:17, 29, 9, -21 ,4, 5, E, None, None, ,  
01/17/2019 16:16, 29, 9, -21 ,3, 5, E, None, None, ,  
01/17/2019 16:07, 29, 9, -21 ,4, 6, E, None, None, ,  
01/17/2019 16:00, 30, 9, -20 ,0, 2, SW, None, None, ,  
01/17/2019 15:57, 30, 9, -20 ,0, 2, SW, None, None, ,  
01/17/2019 15:47, 30, 9, -20 ,3, 4, SE, None, None, ,  
01/17/2019 15:45, 30, 9, -20 ,2, 4, S, None, None, ,  
01/17/2019 15:37, 32, 9, -18 ,0, 4, W, None, None, ,  
01/17/2019 15:30, 32, 9, -18 ,0, 4, W, None, None, ,  
01/17/2019 15:27, 32, 9, -19 ,2, 4, SE, None, None, ,  
01/17/2019 15:17, 31, 9, -19 ,3, 4, SE, None, None, ,  
01/17/2019 15:15, 31, 9, -19 ,3, 4, SE, None, None, ,  
01/17/2019 15:07, 31, 9, -19 ,2, 7, SE, None, None, ,  
01/17/2019 15:00, 32, 9, -19 ,4, 7, SE, None, None, ,  
01/17/2019 14:57, 32, 9, -19 ,4, 7, SE, None, None, ,  
01/17/2019 14:47, 31, 9, -19 ,2, 7, S, None, None, ,  
01/17/2019 14:45, 31, 9, -19 ,2, 7, S, None, None, ,  
01/17/2019 14:37, 30, 9, -20 ,1, 4, E, None, None, ,  
01/17/2019 14:30, 30, 9, -20 ,3, 4, E, None, None, ,  
01/17/2019 14:27, 31, 9, -19 ,2, 4, SE, None, None, ,  
01/17/2019 14:17, 32, 9, -19 ,2, 4, SE, None, None, ,  
01/17/2019 14:15, 32, 9, -19 ,1, 4, SE, None, None, ,  
01/17/2019 14:07, 31, 9, -19 ,1, 2, E, Yes, , ,  
01/17/2019 14:00, 29, 9, -21 ,1, 4, E, None, None, ,  
01/17/2019 13:57, 28, 9, -21 ,1, 4, SE, None, None, ,  
01/17/2019 13:46, 26, 9, -24 ,0, 3, S, None, None, ,  
01/17/2019 13:45, 26, 9, -24 ,0, 3, S, None, None, ,  
01/17/2019 13:36, 25, 9, -24 ,1, 2, E, None, None, ,  
01/17/2019 13:30, 25, 9, -24 ,0, 3, E, None, None, ,  
01/17/2019 13:26, 24, 9, -25 ,1, 4, E, None, None, ,  
01/17/2019 13:16, 24, 9, -25 ,1, 4, E, None, None, ,  
01/17/2019 13:15, 24, 9, -25 ,1, 4, E, None, None, ,  
01/17/2019 13:06, 24, 9, -25 ,2, 3, SE, None, None, ,  
01/17/2019 13:00, 24, 9, -25 ,1, 3, SE, None, None, ,  
01/17/2019 12:56, 24, 9, -25 ,2, 3, E, None, None, ,  
01/17/2019 12:46, 25, 9, -24 ,1, 3, E, None, None, ,  
01/17/2019 12:45, 25, 9, -24 ,0, 2, E, None, None, ,  
01/17/2019 12:36, 23, 9, -25 ,1, 4, E, None, None, ,  
01/17/2019 12:30, 23, 9, -26 ,1, 3, E, None, None, ,  
01/17/2019 12:26, 23, 9, -26 ,0, 5, E, None, None, ,  
01/17/2019 12:16, 22, 9, -26 ,6, 7, E, None, None, ,  
01/17/2019 12:15, 22, 9, -26 ,6, 7, E, None, None, ,  
01/17/2019 12:06, 23, 9, -26 ,2, 5, E, None, None, ,  
01/17/2019 12:00, 22, 9, -26 ,2, 5, E, None, None, ,  
01/17/2019 11:56, 22, 9, -26 ,3, 4, E, None, None, ,  
01/17/2019 11:46, 22, 9, -27 ,2, 4, SE, None, None, ,  
01/17/2019 11:45, 22, 9, -27 ,2, 4, SE, None, None, ,  
01/17/2019 11:36, 22, 9, -27 ,2, 3, E, None, None, ,  
01/17/2019 11:30, 21, 9, -27 ,2, 5, E, None, None, ,  
01/17/2019 11:26, 21, 9, -27 ,1, 5, S, Yes, , ,  
01/17/2019 11:15, 22, 9, -26 ,1, 2, E, None, None, ,  
01/17/2019 11:15, 22, 9, -26 ,1, 2, E, None, None, ,  
01/17/2019 11:05, 21, 9, -27 ,2, 3, E, None, None, ,  
01/17/2019 11:00, 21, 9, -27 ,1, 2, S, None, None, ,  
01/17/2019 10:55, 20, 9, -28 ,1, 2, SE, None, None, ,  
01/17/2019 10:45, 20, 9, -28 ,1, 2, E, Yes, , ,  
01/17/2019 10:45, 20, 9, -28 ,1, 2, E, Yes, , ,  
01/17/2019 10:35, 19, 9, -28 ,0, 2, SE, Yes, , ,  
01/17/2019 10:30, 19, 9, -28 ,0, 1, E, Yes, , ,  
01/17/2019 10:25, 19, 9, -29 ,0, 2, E, Yes, , ,  
01/17/2019 10:15, 19, 9, -29 ,1, 2, E, Yes, , ,  
01/17/2019 10:15, 19, 9, -29 ,1, 2, E, Yes, , ,  
01/17/2019 10:05, 18, 9, -29 ,2, 4, SE, Yes, , ,  
01/17/2019 10:00, 18, 9, -29 ,2, 3, SE, Yes, , ,  
01/17/2019 09:55, 18, 9, -29 ,2, 2, SE, Yes, , ,  
01/17/2019 09:45, 18, 9, -29 ,0, 2, SE, Yes, , ,  
01/17/2019 09:45, 18, 9, -29 ,0, 2, SE, Yes, , ,  
01/17/2019 09:35, 18, 9, -29 ,0, 0, E, Yes, , ,  
01/17/2019 09:30, 18, 9, -29 ,0, 1, E, Yes, , ,  
01/17/2019 09:25, 18, 9, -30 ,0, 2, E, Yes, , ,  
01/17/2019 09:15, 17, 9, -30 ,1, 2, SE, Yes, , ,  
01/17/2019 09:15, 17, 9, -30 ,1, 2, SE, Yes, , ,  
01/17/2019 09:05, 17, 9, -30 ,1, 4, E, Yes, , ,  
01/17/2019 09:00, 17, 9, -30 ,2, 4, E, Yes, , ,  
01/17/2019 08:55, 17, 9, -30 ,3, 4, E, Yes, , ,  
01/17/2019 08:45, 17, 9, -30 ,2, 4, E, Yes, , ,  
01/17/2019 08:45, 17, 9, -30 ,3, 4, E, Yes, , ,  
01/17/2019 08:35, 17, 9, -30 ,0, 3, E, Yes, , ,  
01/17/2019 08:30, 17, 9, -31 ,1, 4, E, Yes, , ,  
01/17/2019 08:25, 16, 9, -31 ,3, 4, E, Yes, , ,  
01/17/2019 08:15, 16, 9, -31 ,2, 3, E, Yes, , ,  
01/17/2019 08:14, 16, 9, -31 ,2, 3, E, Yes, , ,  
01/17/2019 08:04, 16, 9, -31 ,1, 3, E, None, None, ,  
01/17/2019 08:00, 16, 9, -31 ,2, 3, SE, None, None, ,  
01/17/2019 07:54, 16, 9, -31 ,1, 2, SE, None, None, ,  
01/17/2019 07:46, 16, 9, -31 ,1, 3, E, None, None, ,  
01/17/2019 07:44, 16, 9, -32 ,0, 3, E, None, None, ,  
01/17/2019 07:34, 15, 9, -32 ,2, 4, SE, None, None, ,  
01/17/2019 07:31, 15, 9, -32 ,2, 4, SE, None, None, ,  
01/17/2019 07:24, 15, 9, -32 ,3, 4, SE, None, None, ,  
01/17/2019 07:16, 15, 9, -32 ,2, 3, SE, None, None, ,  
01/17/2019 07:14, 15, 9, -32 ,2, 2, SE, None, None, ,  
01/17/2019 07:04, 15, 9, -32 ,0, 3, E, None, None, ,  
01/17/2019 07:01, 15, 9, -32 ,1, 3, E, None, None, ,  
01/17/2019 06:54, 15, 9, -32 ,1, 4, E, None, None, ,  
01/17/2019 06:46, 15, 9, -32 ,3, 4, SE, None, None, ,  
01/17/2019 06:44, 15, 9, -32 ,2, 4, E, None, None, ,  
01/17/2019 06:34, 15, 9, -32 ,1, 3, SE, None, None, ,  
01/17/2019 06:31, 15, 9, -32 ,2, 3, E, Yes, , ,  
01/17/2019 06:24, 15, 9, -32 ,1, 2, SE, None, None, ,  
01/17/2019 06:16, 15, 9, -32 ,1, 2, SE, Yes, , ,  
01/17/2019 06:14, 15, 9, -32 ,1, 2, SE, Yes, , ,  
01/17/2019 06:04, 14, 9, -33 ,0, 1, SE, Yes, , ,  
01/17/2019 06:01, 14, 9, -33 ,0, 2, SE, Yes, , ,  
01/17/2019 05:54, 14, 9, -33 ,1, 4, SE, Yes, , ,  
01/17/2019 05:46, 14, 9, -33 ,1, 4, SE, None, None, ,  
01/17/2019 05:44, 14, 9, -33 ,0, 1, SW, None, None, ,  
01/17/2019 05:34, 14, 9, -33 ,0, 3, E, None, None, ,  
01/17/2019 05:31, 13, 9, -33 ,1, 3, E, None, None, ,  
01/17/2019 05:23, 13, 9, -33 ,1, 3, E, None, None, ,  
01/17/2019 05:16, 13, 9, -33 ,2, 4, E, None, None, ,  
01/17/2019 05:13, 13, 9, -33 ,1, 5, E, None, None, ,  
01/17/2019 05:03, 13, 9, -34 ,2, 5, SE, None, None, ,  
01/17/2019 05:01, 13, 9, -34 ,2, 5, SE, None, None, ,  
01/17/2019 04:53, 13, 9, -34 ,3, 4, SE, None, None, ,  
01/17/2019 04:46, 12, 9, -34 ,2, 3, SE, None, None, ,  
01/17/2019 04:43, 12, 9, -34 ,2, 3, SE, None, None, ,  
01/17/2019 04:33, 13, 9, -34 ,1, 3, E, None, None, ,  
01/17/2019 04:31, 12, 9, -34 ,1, 3, E, None, None, ,  
01/17/2019 04:23, 12, 10, -34 ,2, 2, NE, None, None, ,  
01/17/2019 04:16, 12, 9, -34 ,1, 4, NE, None, None, ,  
01/17/2019 04:13, 12, 9, -34 ,0, 4, NE, None, None, ,  
01/17/2019 04:03, 12, 9, -34 ,2, 5, E, None, None, ,  
01/17/2019 04:01, 12, 9, -34 ,3, 5, E, None, None, ,  
01/17/2019 03:53, 12, 9, -34 ,3, 4, E, None, None, ,  
01/17/2019 03:46, 11, 9, -35 ,1, 4, SE, None, None, ,  
01/17/2019 03:43, 11, 9, -35 ,2, 5, E, None, None, ,  
01/17/2019 03:33, 11, 9, -35 ,3, 5, SE, None, None, ,  
01/17/2019 03:31, 11, 9, -35 ,2, 4, E, None, None, ,  
01/17/2019 03:23, 11, 9, -35 ,1, 4, E, None, None, ,  
01/17/2019 03:16, 11, 9, -35 ,2, 4, E, None, None, ,  
01/17/2019 03:13, 11, 9, -35 ,2, 4, E, None, None, ,  
01/17/2019 03:03, 11, 9, -35 ,2, 3, E, None, None, ,  
01/17/2019 03:01, 11, 9, -35 ,2, 2, E, None, None, ,  
01/17/2019 02:53, 11, 9, -36 ,1, 4, E, None, None, ,  
01/17/2019 02:46, 11, 9, -36 ,4, 4, SE, None, None, ,  
01/17/2019 02:43, 11, 9, -36 ,3, 6, SE, None, None, ,  
01/17/2019 02:33, 10, 9, -36 ,4, 6, SE, None, None, ,  
01/17/2019 02:31, 10, 9, -36 ,3, 3, E, None, None, ,  
01/17/2019 02:23, 10, 9, -36 ,0, 5, E, None, None, ,  
01/17/2019 02:16, 10, 9, -36 ,3, 6, SE, None, None, ,  
01/17/2019 02:13, 10, 9, -36 ,4, 6, SE, None, None, ,  
01/17/2019 02:03, 9, 9, -36 ,2, 4, E, None, None, ,  
01/17/2019 02:01, 9, 9, -37 ,1, 4, NE, None, None, ,  
01/17/2019 01:53, 9, 9, -37 ,0, 4, E, None, None, ,  
01/17/2019 01:46, 8, 9, -37 ,4, 4, E, None, None, ,  
01/17/2019 01:43, 8, 9, -37 ,2, 4, E, None, None, ,  
01/17/2019 01:32, 8, 9, -37 ,2, 2, E, None, None, ,  
01/17/2019 01:31, 8, 9, -37 ,1, 2, E, None, None, ,  
01/17/2019 01:22, 9, 9, -37 ,1, 2, E, None, None, ,  
01/17/2019 01:16, 8, 9, -37 ,0, 2, E, None, None, ,  
01/17/2019 01:12, 8, 9, -37 ,0, 3, E, None, None, ,  
01/17/2019 01:02, 9, 9, -37 ,2, 3, E, None, None, ,  
01/17/2019 01:01, 9, 9, -37 ,2, 3, E, None, None, ,  
01/17/2019 00:52, 9, 9, -37 ,1, 1, NE, None, None, ,  
01/17/2019 00:46, 9, 9, -37 ,0, 2, NE, None, None, ,  
01/17/2019 00:42, 9, 9, -37 ,0, 2, E, None, None, ,  
01/17/2019 00:32, 10, 9, -36 ,2, 4, E, None, None, ,  
01/17/2019 00:31, 10, 9, -36 ,0, 4, E, None, None, ,  
01/17/2019 00:22, 10, 9, -36 ,3, 4, SE, None, None, ,  
01/17/2019 00:16, 10, 9, -36 ,3, 4, E, None, None, ,  
01/17/2019 00:12, 10, 9, -36 ,3, 4, E, None, None, ,  
01/17/2019 00:02, 10, 9, -36 ,0, 1, E, None, None, ,  
01/17/2019 00:01, 11, 9, -36 ,0, 2, E, None, None, ,  
01/16/2019 23:52, 11, 9, -35 ,1, 4, E, None, None, ,  
01/16/2019 23:46, 11, 9, -35 ,3, 6, SE, None, None, ,  
01/16/2019 23:42, 11, 9, -35 ,2, 3, SE, None, None, ,  
01/16/2019 23:32, 11, 9, -35 ,0, 4, E, None, None, ,  
01/16/2019 23:31, 11, 9, -35 ,0, 4, E, None, None, ,  
01/16/2019 23:22, 12, 9, -34 ,2, 3, E, None, None, ,  
01/16/2019 23:16, 12, 9, -34 ,0, 3, E, None, None, ,  
01/16/2019 23:12, 13, 9, -34 ,1, 4, E, None, None, ,  
01/16/2019 23:02, 13, 9, -34 ,2, 4, SE, None, None, ,  
01/16/2019 23:01, 13, 9, -34 ,2, 4, SE, None, None, ,  
01/16/2019 22:52, 12, 9, -34 ,0, 2, E, None, None, ,  
01/16/2019 22:46, 12, 9, -34 ,1, 4, E, None, None, ,  
01/16/2019 22:42, 13, 9, -34 ,2, 4, E, None, None, ,  
01/16/2019 22:32, 12, 9, -34 ,1, 4, E, None, None, ,  
01/16/2019 22:31, 12, 9, -34 ,2, 4, E, None, None, ,  
01/16/2019 22:22, 12, 9, -34 ,1, 2, E, None, None, ,  
01/16/2019 22:16, 13, 9, -34 ,1, 4, E, None, None, ,  
01/16/2019 22:12, 13, 9, -34 ,1, 4, E, None, None, ,  
01/16/2019 22:01, 13, 9, -33 ,2, 3, SE, None, None, ,  
01/16/2019 22:01, 13, 9, -33 ,2, 3, SE, None, None, ,  
01/16/2019 21:51, 13, 9, -33 ,2, 3, SE, None, None, ,  
01/16/2019 21:46, 13, 9, -33 ,1, 4, SE, None, None, ,  
01/16/2019 21:41, 13, 9, -33 ,1, 6, E, None, None, ,  
01/16/2019 21:31, 13, 9, -33 ,3, 5, E, None, None, ,  
01/16/2019 21:31, 13, 9, -33 ,2, 4, E, None, None, ,  
01/16/2019 21:21, 13, 9, -33 ,3, 4, E, None, None, ,  
01/16/2019 21:16, 13, 9, -33 ,2, 4, E, None, None, ,  
01/16/2019 21:11, 13, 9, -33 ,2, 4, E, None, None, ,  
01/16/2019 21:01, 13, 9, -33 ,2, 4, E, None, None, ,  
01/16/2019 21:01, 13, 9, -33 ,2, 4, E, None, None, ,  
01/16/2019 20:51, 13, 9, -34 ,2, 4, E, None, None, ,  
01/16/2019 20:46, 13, 9, -34 ,2, 4, E, None, None, ,  
01/16/2019 20:41, 13, 9, -34 ,2, 3, E, None, None, ,  
Change End Date:

Copyright © 1998-2015 Vaisala, Inc.
All Rights Reserved
Send comments about the data to:
SCAN Web ® is a registered trademark of Vaisala, Inc.
SCAN Web Version 6.0